STARLINK-31810, 59799

Orbit data source: Space-Track

STARLINK-31810, 59799 is a payload satellite owned by SpaceX/Seattle (US) in LEO that was launched on Sat, 18 May 2024 UTC via an FALCON 9 launch vehicle from the Air Force Eastern Test Range (AFETR). Payload-class satellites include a variety of spacecraft equipped with specific instruments for various scientific and technological missions. These include communications satellites like Starlink; space stations such as the ISS; scientific satellites like the Hubble; Earth observation satellites from companies like Planet Labs, Umbra, and HawkEye 360; GPS; miniature CubeSats for education and research; and military/defense satellites.

Loading next visibility...
Identifier
59799, 2024-093T
Orbit
LEO
Country
Flag of USUS
Related business
Manufacturer
SpaceX/Seattle
Mission
Operational Commercial Communications
Bus & Motor
STARLINK V2M, Unknown motor
Mass
730 kg wet, ~700 kg dry
Launch date (UTC)
2024-05-18 (2 years ago)
Launch vehicle
FALCON 9
Launch site
Air Force Eastern Test Range (AFETR)
Object type
Payload
Rocket body
Debris
Shape & HBR
Box + 2 Pan, 17.7 m
Radar Cross Section
33.884 m², Large (>1 m²)

Expand to show TLE details & history
Last TLE update: 2 days ago

TLE from 2 days ago
0 STARLINK-31810
1 59799U 24093T   26171.48006728 -.00002453  00000-0 -79684-4 0  9993
2 59799  43.0028 348.5789 0000842 257.2456 102.8302 15.27560287118411
Epoch: 2026-06-20T11:31Z
TLE epoch observation values (Epoch: 2026-06-20T11:31:17.812Z)
Latitude
0.00003°
Longitude
-92.93938°
Altitude
483.012 km
Speed
7.626 km/s
True Right ascension
23h 14m 18s
True Declination
0° 00' 00"
Sunlit
Object was in daylight at epoch
Visualization orbit readout
Latitude
Unknown
Longitude
Unknown
Altitude
Unknown
Speed
Unknown
Apparent Right ascension
Unknown
Apparent Declination
Unknown
Sunlit
N/A
Visualization observer readout
Local Sidereal Time
21:42:55
Azimuth
Unknown
Elevation
Unknown
Doppler factor
Unknown
Orbital elements
Apogee altitude
485.631 km
Perigee altitude
484.475 km
Semi-major axis
6,863.19 km
Eccentricity
0.00008
Inclination
43.0028°
RAAN
348.5789°
Arg. of periapsis
257.2456°
True anomaly
102.83961°
Mean anomaly
102.8302°
Eccentric anomaly
102.8349°
Mean motion
3.81728 °/min
Orbital period
94.31 mins
BSTAR
-0.000079684
Loading maneuver chart data...
Computing Atmospheric mass density...
Loading historical data...
Loading historical data...
Loading historical data...
Loading historical data...
Loading historical data...
Loading historical data...
Loading historical data...

Documentation

Showing up to 5 results
|